| time (UTC) | temp F | wind direction | speed MPH | gust MPH | rain 1hr in | rain 24hr in | rain mn in | humidity % | barometer mb |
| 20260904010037 | 75 | 246 | 0.0 | 0.0 | 0.00 | 0.78 | 0.06 | 1 | 1011.2 |
| 20260904004522 | 76 | 246 | 0.0 | 1.0 | 0.00 | 0.78 | 0.06 | 1 | 1011.1 |
| 20260904003021 | 76 | 246 | 0.0 | 0.0 | 0.00 | 0.78 | 0.06 | 1 | 1010.9 |
| 20260904001515 | 77 | 246 | 0.0 | 1.0 | 0.00 | 0.78 | 0.06 | 1 | 1010.8 |
| 20260904000008 | 78 | 246 | 0.0 | 2.0 | 0.00 | 0.78 | 0.06 | 1 | 1010.8 |
| 20260903234503 | 79 | 246 | 0.0 | 0.0 | 0.00 | 0.78 | 0.06 | 1 | 1010.7 |
| 20260903233102 | 80 | 245 | 0.0 | 1.0 | 0.00 | 0.78 | 0.06 | 1 | 1010.7 |
| 20260903231556 | 81 | 245 | 0.0 | 1.0 | 0.00 | 0.78 | 0.06 | 1 | 1010.8 |
| 20260903230053 | 82 | 245 | 0.0 | 1.0 | 0.00 | 0.78 | 0.06 | 1 | 1010.8 |
| 20260903224607 | 82 | 254 | 0.0 | 1.0 | 0.00 | 0.78 | 0.06 | 8 | 1010.5 |
| 20260903223041 | 83 | 255 | 0.0 | 3.0 | 0.00 | 0.78 | 0.06 | 15 | 1010.4 |
| 20260903221537 | 84 | 229 | 1.0 | 4.0 | 0.00 | 0.78 | 0.06 | 22 | 1010.3 |
| 20260903220038 | 84 | 211 | 0.0 | 4.0 | 0.00 | 0.78 | 0.06 | 26 | 1010.1 |
| 20260903214537 | 84 | 273 | 0.0 | 3.0 | 0.00 | 0.78 | 0.06 | 28 | 1010.2 |
| 20260903213028 | 85 | 272 | 1.0 | 6.0 | 0.00 | 0.78 | 0.06 | 33 | 1010.2 |
| 20260903211519 | 87 | 265 | 2.0 | 8.0 | 0.00 | 0.78 | 0.06 | 35 | 1010.4 |
| 20260903210015 | 87 | 277 | 2.0 | 5.0 | 0.00 | 0.78 | 0.06 | 34 | 1010.5 |
| 20260903204512 | 86 | 271 | 2.0 | 10.0 | 0.00 | 0.78 | 0.06 | 30 | 1010.6 |
| 20260903203005 | 85 | 340 | 3.0 | 7.0 | 0.00 | 0.78 | 0.06 | 29 | 1010.7 |
| 20260903201502 | 85 | 254 | 2.0 | 4.0 | 0.00 | 0.78 | 0.06 | 30 | 1011.0 |
| 20260903200100 | 86 | 306 | 3.0 | 11.0 | 0.00 | 0.78 | 0.06 | 34 | 1010.9 |
| 20260903194554 | 87 | 212 | 4.0 | 11.0 | 0.00 | 0.78 | 0.06 | 34 | 1010.8 |
| 20260903193049 | 86 | 262 | 2.0 | 10.0 | 0.00 | 0.78 | 0.06 | 33 | 1010.9 |
| 20260903191545 | 85 | 265 | 1.0 | 7.0 | 0.00 | 0.78 | 0.06 | 26 | 1011.1 |
| 20260903190040 | 84 | 245 | 3.0 | 9.0 | 0.00 | 0.78 | 0.06 | 25 | 1011.4 |
| 20260903184536 | 85 | 283 | 3.0 | 8.0 | 0.00 | 0.78 | 0.06 | 30 | 1011.7 |
| 20260903183031 | 87 | 210 | 3.0 | 9.0 | 0.00 | 0.78 | 0.06 | 32 | 1011.7 |
| 20260903181528 | 88 | 190 | 1.0 | 6.0 | 0.00 | 0.78 | 0.06 | 34 | 1011.8 |
| 20260903180026 | 88 | 286 | 0.0 | 7.0 | 0.00 | 0.78 | 0.06 | 32 | 1011.9 |
| 20260903174518 | 87 | 257 | 1.0 | 9.0 | 0.00 | 0.78 | 0.06 | 30 | 1011.9 |
| 20260903173013 | 88 | 196 | 1.0 | 6.0 | 0.00 | 0.78 | 0.06 | 30 | 1012.1 |
| 20260903171509 | 87 | 322 | 3.0 | 7.0 | 0.00 | 0.78 | 0.06 | 24 | 1012.1 |
| 20260903170005 | 85 | 264 | 1.0 | 6.0 | 0.00 | 0.78 | 0.06 | 12 | 1012.4 |
| 20260903164618 | 84 | 270 | 2.0 | 7.0 | 0.00 | 0.78 | 0.06 | 5 | 1012.4 |
| 20260903163058 | 82 | 327 | 2.0 | 5.0 | 0.00 | 0.78 | 0.06 | 1 | 1012.6 |
| 20260903161554 | 80 | 327 | 3.0 | 7.0 | 0.00 | 0.80 | 0.06 | 1 | 1012.8 |
| 20260903160047 | 79 | 286 | 1.0 | 7.0 | 0.00 | 0.80 | 0.06 | 1 | 1012.9 |
| 20260903154602 | 78 | 283 | 3.0 | 7.0 | 0.00 | 0.80 | 0.06 | 1 | 1013.2 |
| 20260903153038 | 77 | 298 | 2.0 | 7.0 | 0.00 | 0.80 | 0.06 | 1 | 1013.3 |
| 20260903151533 | 75 | 296 | 2.0 | 7.0 | 0.00 | 1.19 | 0.06 | 1 | 1013.4 |
| 20260903150029 | 74 | 360 | 1.0 | 4.0 | 0.00 | 1.19 | 0.06 | 1 | 1013.4 |
| 20260903144527 | 73 | 265 | 0.0 | 7.0 | 0.00 | 1.19 | 0.06 | 1 | 1013.4 |
| 20260903143020 | 73 | 241 | 1.0 | 8.0 | 0.00 | 1.19 | 0.06 | 1 | 1013.3 |
| 20260903141516 | 72 | 257 | 2.0 | 7.0 | 0.00 | 1.79 | 0.06 | 1 | 1013.3 |
| 20260903140017 | 71 | 217 | 0.0 | 11.0 | 0.00 | 1.79 | 0.06 | 1 | 1013.4 |
| 20260903134513 | 72 | 238 | 2.0 | 7.0 | 0.00 | 1.79 | 0.06 | 1 | 1013.3 |
| 20260903133014 | 72 | 288 | 1.0 | 5.0 | 0.00 | 1.79 | 0.06 | 1 | 1013.1 |
| 20260903131503 | 70 | 288 | 1.0 | 5.0 | 0.00 | 1.79 | 0.06 | 1 | 1013.1 |
| 20260903130059 | 70 | 293 | 0.0 | 2.0 | 0.00 | 1.79 | 0.06 | 1 | 1013.3 |
| 20260903124554 | 70 | 294 | 0.0 | 2.0 | 0.00 | 1.79 | 0.06 | 1 | 1013.3 |
| 20260903123050 | 69 | 287 | 0.0 | 2.0 | 0.00 | 1.79 | 0.06 | 1 | 1013.3 |
| 20260903121545 | 69 | 285 | 0.0 | 1.0 | 0.00 | 1.79 | 0.06 | 1 | 1013.1 |
| 20260903120041 | 68 | 292 | 0.0 | 0.0 | 0.00 | 1.79 | 0.06 | 1 | 1012.8 |
| 20260903114544 | 67 | 287 | 0.0 | 1.0 | 0.00 | 1.79 | 0.06 | 1 | 1012.9 |
| 20260903113032 | 66 | 287 | 0.0 | 2.0 | 0.00 | 1.79 | 0.06 | 1 | 1012.9 |
| 20260903111537 | 66 | 287 | 1.0 | 2.0 | 0.00 | 1.79 | 0.06 | 1 | 1012.6 |
| 20260903110022 | 66 | 287 | 0.0 | 2.0 | 0.00 | 1.79 | 0.06 | 1 | 1012.6 |
| 20260903104519 | 66 | 287 | 0.0 | 1.0 | 0.00 | 1.79 | 0.06 | 1 | 1012.5 |
| 20260903103013 | 66 | 287 | 0.0 | 3.0 | 0.00 | 1.79 | 0.06 | 1 | 1012.5 |
| 20260903101509 | 66 | 287 | 0.0 | 2.0 | 0.00 | 1.79 | 0.06 | 1 | 1012.5 |
| 20260903100005 | 66 | 287 | 0.0 | 2.0 | 0.00 | 1.79 | 0.06 | 1 | 1012.7 |
| 20260903094607 | 66 | 287 | 0.0 | 2.0 | 0.00 | 1.79 | 0.06 | 1 | 1012.8 |
| 20260903093109 | 66 | 287 | 0.0 | 2.0 | 0.00 | 1.79 | 0.06 | 1 | 1013.1 |
| 20260903091551 | 66 | 287 | 0.0 | 1.0 | 0.00 | 1.79 | 0.06 | 1 | 1013.1 |
| 20260903090054 | 66 | 287 | 0.0 | 2.0 | 0.00 | 1.79 | 0.06 | 1 | 1012.9 |
| 20260903084543 | 66 | 287 | 0.0 | 2.0 | 0.00 | 1.79 | 0.06 | 1 | 1012.7 |
| 20260903083039 | 66 | 287 | 1.0 | 2.0 | 0.00 | 1.79 | 0.06 | 1 | 1012.6 |
| 20260903081535 | 66 | 287 | 0.0 | 1.0 | 0.00 | 1.79 | 0.06 | 1 | 1012.8 |
| 20260903080030 | 66 | 287 | 0.0 | 1.0 | 0.00 | 1.79 | 0.06 | 1 | 1012.9 |
| 20260903074525 | 66 | 287 | 0.0 | 2.0 | 0.00 | 1.79 | 0.06 | 1 | 1012.8 |
| 20260903073021 | 66 | 287 | 0.0 | 1.0 | 0.00 | 1.79 | 0.06 | 1 | 1013.1 |
| 20260903071516 | 66 | 287 | 0.0 | 2.0 | 0.00 | 1.79 | 0.06 | 1 | 1012.7 |
| 20260903070012 | 66 | 287 | 1.0 | 3.0 | 0.00 | 1.79 | 0.06 | 1 | 1012.7 |
| 20260903064508 | 66 | 287 | 1.0 | 2.0 | 0.00 | 1.79 | 0.06 | 1 | 1013.1 |
| 20260903063003 | 66 | 287 | 0.0 | 3.0 | 0.00 | 1.79 | 0.06 | 1 | 1012.9 |
| 20260903061600 | 67 | 287 | 1.0 | 3.0 | 0.00 | 1.79 | 0.06 | 1 | 1013.1 |
| 20260903054551 | 67 | 292 | 3.0 | 8.0 | 0.01 | 1.79 | 0.06 | 1 | 1013.0 |
| 20260903053045 | 67 | 239 | 2.0 | 10.0 | 0.04 | 1.79 | 0.06 | 1 | 1013.1 |
| 20260903051545 | 67 | 10 | 2.0 | 7.0 | 0.07 | 1.79 | 0.06 | 1 | 1013.2 |
| 20260903050050 | 67 | 192 | 2.0 | 11.0 | 0.10 | 1.79 | 0.06 | 1 | 1013.0 |
| 20260903044533 | 67 | 121 | 2.0 | 8.0 | 0.17 | 1.78 | 0.05 | 1 | 1013.3 |
| 20260903043028 | 68 | 232 | 3.0 | 8.0 | 0.15 | 1.75 | 0.02 | 1 | 1014.2 |
| 20260903041524 | 69 | 274 | 1.0 | 4.0 | 0.15 | 1.72 | 1.72 | 1 | 1015.4 |
| 20260903040020 | 69 | 295 | 2.0 | 9.0 | 0.17 | 1.69 | 1.69 | 1 | 1015.9 |
| 20260903034525 | 69 | 251 | 1.0 | 5.0 | 0.15 | 1.61 | 1.61 | 1 | 1014.3 |
| 20260903033010 | 69 | 145 | 0.0 | 3.0 | 0.22 | 1.60 | 1.60 | 1 | 1013.5 |
| 20260903031506 | 69 | 233 | 2.0 | 9.0 | 0.23 | 1.57 | 1.57 | 1 | 1013.9 |
| 20260903030002 | 70 | 201 | 2.0 | 7.0 | 0.49 | 1.52 | 1.52 | 1 | 1014.1 |
| 20260903024557 | 70 | 196 | 2.0 | 8.0 | 0.44 | 1.46 | 1.46 | 1 | 1015.3 |
| 20260903023053 | 70 | 260 | 2.0 | 7.0 | 0.37 | 1.38 | 1.38 | 1 | 1015.5 |
| 20260903021548 | 70 | 182 | 1.0 | 6.0 | 0.33 | 1.34 | 1.34 | 1 | 1015.5 |
| 20260903020049 | 71 | 316 | 3.0 | 10.0 | 0.02 | 1.03 | 1.03 | 1 | 1016.5 |
| 20260903014548 | 72 | 199 | 3.0 | 9.0 | 0.01 | 1.02 | 1.02 | 1 | 1014.1 |
| 20260903013034 | 72 | 173 | 2.0 | 8.0 | 0.00 | 1.01 | 1.01 | 1 | 1014.7 |
| 20260903011543 | 72 | 292 | 0.0 | 4.0 | 0.00 | 1.01 | 1.01 | 1 | 1014.7 |